Погода в Папинской

Россия / Архангельская область     60°59′16″N   41°07′51″E
темп.,
°C
ветер,
м/с
пор.,
м/с
влажн.,
%
обл.,
%
осадки,
мм/ч
давл.,
гПа
погр.,
м
7 марта, вс
вс700:00−15ю389886 0.0 1004188
03:00−13ю4119492 0.0 1001291
06:00−12ююв51390100 0.0 997485
09:00−11ююв61293100 0.3 995636
12:00−9юв51092100 0.8 993769
15:00−8юв51091100 1.4 992887
18:00−9вюв51093100 0.5 992815
21:00−10в51193100 1.1 993737
8 марта, пн
пн800:00−11всв51193100 0.4 993551
03:00−13св51194100 0.7 995532
06:00−14св51193100 0.3 997523
09:00−16ссв51194100 0.3 1000444
12:00−14ссв51092100 0.0 1002534
15:00−13с5890100 0.1 1005656
18:00−17с4994100 0.1 1007508
21:00−22с31096100 0.1 1010362
9 марта, вт
вт900:00−25ссз389899 0.0 1011212
03:00−28ссз379876 0.0 1013153
06:00−30ссз259842 0.0 1015133
09:00−28с369545 0.0 1017244
12:00−23ссз359367 0.0 1018391
15:00−21ссз369181 0.0 1019496
18:00−24ссз239798 0.0 101976
21:00−27ссз239849 0.0 102230
10 марта, ср
ср1000:00−29ссз22990 0.0 102219
03:00−29з23970 0.0 102341
06:00−26з379864 0.0 1022183
09:00−22зсз499582 0.0 1021290
12:00−16зсз489188 0.0 1020385
15:00−13зсз489192 0.0 1020489
18:00−14зсз3995100 0.0 1019337
21:00−17зсз399699 0.1 1020249
11 марта, чт
чт1100:00−20зсз389957 0.0 1020176
03:00−22з369929 0.0 1021131
06:00−22з389914 0.0 1020148
09:00−18з37926 0.0 1020235
12:00−13з36860 0.0 1019321
15:00−10з35840 0.0 1018435
18:00−15юз23950 0.0 101825
21:00−18юз23950 0.0 101722